Regional Weather Roundup
Issued by NWS

Home | Current Version | Previous Version | Text Only | Print | Product List | Glossary Off
Versions: 1 2 3 4 5 6 7 8 9 10 11 12 13 14 15 16 17 18 19 20 21 22 23 24 25 26 27 28 29 30 31 32 33 34 35 36 37 38 39 40 41 42 43 44 45 46 47 48 49 50

938
ASUS45 KTFX 211910
RWRMT
MONTANA REGIONAL WEATHER ROUNDUP
NATIONAL WEATHER SERVICE GREAT FALLS MT
100 PM MDT MON AUG 21 2017

NOTE: "FAIR" INDICATES FEW OR NO CLOUDS BELOW 12000 FEET WITH NO
SIGNIFICANT WEATHER AND/OR OBSTRUCTIONS TO VISIBILITY.

MTZ001>007-043-212000-
WEST OF THE DIVIDE

CITY           SKY/WX    TMP DP  RH WIND       PRES   REMARKS
KALISPELL      SUNNY     71  43  36 CALM      30.19S
MISSOULA       SUNNY     69  40  34 S3        30.21S HAZE
BUTTE          SUNNY     69  36  29 CALM      30.28S
MULLAN PASS    SUNNY     64  35  34 CALM      30.32R
ANACONDA         N/A     66  37  34 NE6       30.26S
DEER LODGE       N/A     68  37  32 CALM      30.27S
EUREKA           N/A     68  41  37 MISG      30.20F
HAMILTON         N/A     68  39  34 CALM      30.23S
LIBBY            N/A     70  43  37 NW5       30.17F
RONAN            N/A     72  51  47 CALM      30.23S
$$

MTZ008-052>055-212000-
SOUTHWEST MONTANA

CITY           SKY/WX    TMP DP  RH WIND       PRES   REMARKS
BOZEMAN        SUNNY     71  37  28 CALM      30.23R
DILLON         SUNNY     71  33  24 N9        30.25R
W YELLOWSTONE  SUNNY     66  30  26 CALM      30.31R
ENNIS          SUNNY     68  32  26 W7        30.30S
THREE FORKS      N/A     72  35  25 CALM      30.19S
$$

MTZ009-010-012-014-046-048-049-054-212000-
EAST SLOPES AND CENTRAL MONTANA

CITY           SKY/WX    TMP DP  RH WIND       PRES   REMARKS
CUT BANK       SUNNY     68  36  30 E7        30.21F
GREAT FALLS    SUNNY     71  33  24 VRB6      30.20S
MALMSTROM AFB  SUNNY     70  36  28 CALM      30.20S
HELENA         SUNNY     74  37  26 VRB3      30.19F
AUGUSTA          N/A     69  33  26 E6        30.23
BOWMANS CRNR     N/A     68  34  28 E9        30.21R
CHOTEAU          N/A     68  34  28 VRB6      30.23S
FAIRFIELD        N/A     68  32  26 NE5       30.21R
POWER            N/A     68  32  25 NE7       30.21R
RAYNESFORD       N/A     69  35  28 NW5       30.21S
ULM              N/A     71  35  26 NW6       30.20S
$$

MTZ011-013-016-021-045-047-050-051-212000-
NORTH CENTRAL MONTANA

CITY           SKY/WX    TMP DP  RH WIND       PRES   REMARKS
HAVRE          SUNNY     71  36  27 E10       30.18S
LEWISTOWN      SUNNY     71  34  25 VRB3      30.21S
N BAR RANCH      N/A     70  30  23 VRB5      30.25S
CHINOOK          N/A     72  37  28 E3        30.18S
DENTON           N/A     71  33  24 N5        30.16S
GEYSER           N/A     71  35  26 N7        30.20S
GRASS RANGE      N/A     70  30  23 E5        30.18R
JUDITH GAP       N/A     71  35  26 N12       30.22
WINIFRED         N/A     71  31  23 E8        30.19S
$$

MTZ017>020-022>027-061-062-212000-
NORTHEAST MONTANA

CITY           SKY/WX    TMP DP  RH WIND       PRES   REMARKS
GLASGOW        CLOUDY    71  36  27 N10       30.16R
JORDAN           N/A     72  33  24 N9        30.17R
SIDNEY         SUNNY     72  41  32 N13       30.12R
WOLF POINT     CLOUDY    76  37  24 NW13      30.13R
MALTA          CLOUDY    72  37  28 VRB6      30.17S
PLENTYWOOD       N/A     68  39  34 NW21G31   30.11R
POPLAR           N/A     70  39  32 N10G17    30.14R
$$

MTZ028>42-056>058-212000-
SOUTHCENTRAL AND SOUTHEAST MONTANA

CITY           SKY/WX    TMP DP  RH WIND       PRES   REMARKS
BAKER          SUNNY     74  35  24 N13       30.15R
BILLINGS       MOSUNNY   75  34  22 E8        30.18S
LIVINGSTON     SUNNY     74  35  24 NE7       30.22S
MILES CITY     SUNNY     77  32  19 NE9       30.15R
BIG TIMBER     SUNNY     72  30  21 CALM      30.24S
HARLOWTON        N/A     72  32  22 MISG      30.21R
LAUREL           N/A     75  36  24 NE3       30.16F
$$

REGIONAL REPORTS...DAKOTAS

CITY           SKY/WX    TMP DP  RH WIND       PRES   REMARKS
WILLISTON      SUNNY     73  41  31 NW15G24   30.10R
MINOT          SUNNY     74  44  34 NW25G35   29.99R
DICKINSON      SUNNY     72  43  35 N20G26    30.08R
BEACH            N/A     70  37  30 N14G21    30.16R
CROSBY           N/A     70  37  30 NW20      30.09R
TIOGA            N/A     68  39  34 N22G29    30.09R
WATFORD CITY     N/A     70  41  35 N15G23    30.09R
BISMARCK       SUNNY     74  55  51 NW15G24   29.98R
GRAND FORKS    PTSUNNY   71  58  63 N14       29.90F
FARGO          CLOUDY    71  60  68 S9        29.88F
BUFFALO SD       N/A     76  37  24 N17G28    30.06R
RAPID CITY     SUNNY     71  46  40 N16G23    30.11R
$$

REGIONAL REPORTS...WYOMING/IDAHO/WASHINGTON

CITY           SKY/WX    TMP DP  RH WIND       PRES   REMARKS
GILLETTE       SUNNY     73  35  25 N15       30.19R
SHERIDAN       SUNNY     74  34  23 VRB3      30.20R
BUFFALO WY     SUNNY     73  31  21 N7        30.25R
CODY           SUNNY     70  38  31 N7        30.24R
YELLOWSTONE LA   N/A     62  37  39 VRB5      30.38S
IDAHO FALLS    SUNNY     73  38  27 SW7       30.21S
SALMON         SUNNY     70  39  32 CALM      30.21S
BOISE          SUNNY     76  42  29 NW8       30.12R
SPOKANE        MOSUNNY   73  45  36 E5        30.16S
$$

REGIONAL REPORTS...ALBERTA

CITY           SKY/WX    TMP DP  RH WIND       PRES   REMARKS
EDMONTON       PTSUNNY   66  46  48 SW10      30.10S
CALGARY        MOSUNNY   66  43  42 S13G18    30.17S
LETHBRIDGE     MOSUNNY   68  39  34 SE8       30.19S
MEDICINE HAT   MOSUNNY   70  37  30 VRB6      30.17S
$$

REGIONAL REPORTS...SASKATCHEWAN

CITY           SKY/WX    TMP DP  RH WIND       PRES   REMARKS
SWIFT CURRENT  SUNNY     66  32  28 N12G17    30.16S
REGINA         MOSUNNY   70  36  28 NW22G29   30.09R
SASKATOON      MOSUNNY   68  41  37 W14G21    30.11R
$$




USA.gov is the U.S. government's official web portal to all federal, state and local government web resources and services.